RH
2 2 2 2 3 3 3 3 3 4 5 6 8 14 19 22 21 20 17 16 18 20 22 22 22 20 21 23 24 25 24 31 29 25 24 25 26 25 24 22 18 14 12 11 9
2 2 2 3 4 4 4 4 5 6 7 11 17 21 23 26 26 25 21 20 20 20 19 21 23 25 25 24 24 24 25 26 24 24 24 25 27 28 28 28 28 24 21 18 15
3 3 3 4 5 5 6 7 7 8 11 15 18 19 20 24 26 27 27 23 23 21 21 22 23 23 20 19 20 21 22 23 24 24 23 25 26 25 25 29 25 28 29 25 22
3 3 4 4 5 5 6 7 7 8 11 14 16 16 17 18 20 25 29 29 27 26 24 24 24 22 23 22 22 19 23 24 28 27 22 21 25 32 27 26 28 29 32 34 31
3 3 4 4 5 5 7 10 10 10 10 10 12 14 15 16 19 24 24 27 27 27 28 28 27 26 26 26 27 28 30 31 30 33 32 34 35 33 33 32 32 31 30 32 36
3 3 4 4 6 7 9 10 11 12 15 18 23 26 28 31 32 32 27 27 28 30 30 29 29 28 29 32 31 31 34 35 35 36 37 39 38 37 35 35 36 34 34 34 35
4 4 4 6 8 9 11 12 12 20 26 29 27 32 33 34 40 39 34 31 31 28 25 25 26 26 27 31 33 33 34 37 35 36 37 40 37 36 36 37 38 37 36 36 36
8 7 8 9 9 10 11 12 22 23 30 34 32 40 41 39 39 35 32 32 31 28 25 26 26 26 28 29 29 30 30 32 32 34 33 34 33 32 30 29 28 26 26 25 26
23 17 13 11 11 12 16 23 24 26 32 34 36 39 37 33 31 29 30 29 26 24 22 22 24 26 28 32 32 32 36 36 35 34 33 30 28 24 21 16 14 12 11 10 11
37 35 32 29 28 28 28 30 29 32 36 36 32 30 31 30 29 31 30 28 26 25 26 26 27 28 31 36 35 34 34 32 30 28 25 22 20 19 16 14 11 9 8 7 6
40 38 35 33 31 29 29 32 35 37 38 32 29 29 33 30 30 24 22 21 26 24 26 28 31 36 34 33 33 32 30 27 22 18 16 13 10 9 6 6 6 6 5 4 4
41 41 38 37 36 36 38 40 40 32 27 28 26 27 29 27 23 24 26 25 22 30 35 35 34 32 29 30 28 24 20 17 13 9 7 6 5 5 5 4 4 4 3 3 3
46 42 40 39 40 42 42 40 40 34 32 29 27 26 27 24 25 31 33 30 29 26 32 35 33 30 27 22 18 15 13 10 7 6 5 4 4 4 4 4 3 3 3 3 3
42 41 44 44 41 39 42 43 40 37 31 28 26 29 24 20 22 18 23 24 26 29 30 29 27 26 23 20 17 14 8 6 5 5 4 4 4 4 3 3 3 3 3 3 3
51 47 43 43 41 37 38 39 35 32 27 28 24 20 19 22 21 23 21 25 27 29 31 27 26 24 19 15 9 8 7 6 5 4 4 4 4 3 3 4 5 5 5 6 6
57 52 49 47 42 40 38 36 34 33 31 24 22 21 21 21 23 24 30 29 30 32 29 27 25 19 16 10 9 8 7 5 4 4 4 4 4 4 5 6 8 12 14 17 24
54 51 53 49 45 42 40 37 34 28 26 24 22 22 23 26 25 26 20 24 31 32 29 27 19 16 12 10 7 6 5 4 3 4 5 6 7 9 11 14 17 33 54 71 88
56 57 54 48 47 41 35 32 31 31 28 25 24 25 30 30 26 24 20 23 27 29 28 23 17 13 10 8 6 5 4 3 4 5 8 10 13 14 15 26 56 83 90 87 97
61 55 52 50 46 41 41 37 32 28 27 28 28 29 30 27 26 26 22 27 27 28 23 19 14 11 8 6 5 4 4 5 8 12 13 16 19 24 28 32 66 90 89 87 84
62 56 52 47 40 38 38 35 32 30 31 33 32 30 28 26 27 26 27 28 29 25 21 16 11 8 6 5 4 4 5 11 18 21 23 23 27 36 32 35 46 59 75 94 89
58 56 49 40 40 43 40 37 37 37 34 28 28 30 27 29 26 28 30 29 26 20 17 12 9 6 4 4 4 8 16 20 24 32 39 41 37 47 45 45 44 48 43 48 72
60 56 51 44 44 43 42 40 37 28 24 24 24 23 25 25 25 29 31 28 21 19 12 9 7 4 4 4 7 13 18 29 39 44 58 61 47 58 61 58 58 52 53 63 65
68 61 55 51 46 43 40 40 34 27 23 20 20 21 22 27 32 31 27 23 21 14 10 7 4 4 5 8 12 20 32 44 50 57 61 65 73 80 78 81 79 66 58 67 69
66 63 60 53 48 48 51 43 32 25 21 19 21 22 24 32 32 28 24 23 15 10 7 5 4 4 7 14 19 28 38 44 50 65 68 83 60 84 80 81 77 73 68 68 66
77 68 64 59 62 64 56 37 22 22 20 19 19 24 33 35 32 26 26 17 11 8 5 4 4 6 15 20 30 38 50 49 61 74 69 67 72 67 79 83 72 58 61 66 66
79 71 72 72 59 53 41 19 23 24 21 20 26 32 32 33 30 29 19 12 8 6 4 4 6 11 22 33 42 50 56 55 68 70 74 80 86 90 96 100 94 80 80 77 72
82 77 66 53 44 41 22 17 24 30 23 28 38 36 36 32 31 22 13 9 6 4 4 5 11 18 27 38 44 50 52 64 70 78 82 82 84 80 88 100 88 72 70 71 71
Wind_Speed
11 12 12 13 13 12 12 12 14 16 16 16 17 17 19 21 23 24 22 20 19 19 21 21 21 20 22 24 24 23 23 23 25 27 30 33 36 37 38 38 38 38 39 39 39
14 14 14 13 12 13 14 14 16 17 18 15 17 20 22 24 25 25 25 24 23 21 22 22 22 26 27 28 27 26 24 28 29 30 31 32 36 39 41 42 43 44 44 45 46
13 13 12 12 14 14 15 17 18 19 16 17 18 21 23 25 26 27 27 25 24 24 25 24 29 31 29 29 29 29 29 32 32 33 34 36 38 40 42 44 47 47 47 49 50
11 11 13 15 17 17 18 19 19 19 19 21 23 25 27 28 30 30 29 27 27 26 30 28 31 30 30 31 32 34 34 35 35 37 41 44 43 42 44 45 46 49 50 52 53
12 13 15 17 17 17 17 19 20 22 24 27 29 31 32 30 31 33 33 30 29 32 27 32 32 32 34 36 38 39 40 41 43 44 45 44 45 48 48 49 50 50 52 53 54
15 16 18 18 17 17 19 21 23 26 28 30 31 32 32 30 32 33 32 30 30 30 31 33 35 36 38 41 42 43 44 47 48 49 50 50 52 52 53 53 54 54 55 55 56
14 15 17 18 19 21 22 24 26 28 29 30 29 28 29 29 27 26 26 25 28 28 31 35 38 40 43 45 47 50 51 52 54 56 56 55 57 56 56 57 56 56 57 59 60
17 18 19 21 22 23 25 26 26 28 30 29 27 29 28 27 27 32 30 30 32 35 37 40 44 47 49 50 50 53 55 58 58 58 59 60 59 58 57 57 57 57 57 59 60
20 21 23 24 25 24 24 25 26 29 29 28 31 31 27 32 33 31 32 32 36 39 42 45 47 49 50 51 53 55 58 59 60 58 59 60 63 62 62 62 62 63 63 62 63
20 21 22 23 24 24 25 26 28 30 30 32 31 29 29 35 33 33 33 37 40 42 45 47 50 52 53 53 54 54 54 56 58 57 58 60 64 65 65 66 68 70 70 71 70
20 22 23 25 26 27 27 30 31 29 29 29 30 31 34 33 35 37 39 40 42 46 49 51 51 51 52 53 52 52 54 56 58 61 62 64 66 66 67 68 70 73 73 75 77
19 20 22 24 25 27 27 29 29 31 31 31 32 36 32 35 38 41 42 45 47 50 52 51 52 52 52 53 54 55 57 59 61 65 67 68 69 70 71 73 75 77 78 80 82
20 20 23 25 29 31 31 31 31 31 32 33 36 34 37 41 42 43 45 47 50 51 52 51 51 52 53 55 55 58 60 63 65 66 69 73 74 75 76 78 80 82 83 82 82
22 24 28 28 29 32 31 30 31 32 34 36 35 39 41 44 46 50 50 52 54 55 55 57 57 59 59 59 61 62 64 66 69 71 73 76 79 80 79 81 81 82 82 83 82
24 27 28 26 29 28 26 27 29 31 38 37 39 40 44 46 48 50 53 55 57 58 59 61 61 60 60 61 63 65 69 71 74 76 78 78 77 78 75 65 64 64 63 63 64
27 28 28 29 29 27 28 30 33 36 38 39 41 44 47 49 50 52 55 58 59 58 60 61 61 62 64 65 69 70 74 78 79 77 74 73 68 68 59 53 49 49 49 49 47
28 28 28 28 31 32 33 34 35 36 39 43 45 47 49 51 52 56 61 62 61 62 64 64 63 66 67 70 73 77 79 78 77 73 63 57 52 48 46 44 43 40 35 34 34
27 28 30 31 31 31 32 34 37 38 40 44 45 50 52 57 58 58 62 66 65 65 65 66 69 70 73 76 79 82 82 79 69 61 50 41 40 38 39 39 38 33 27 26 25
27 28 30 31 34 36 37 38 39 41 43 45 49 54 56 57 59 62 64 65 66 66 65 68 71 73 78 82 82 77 69 64 53 43 39 38 38 37 35 37 38 37 34 33 35
29 32 35 34 35 35 35 36 39 41 44 49 52 54 55 58 60 62 65 66 66 65 66 69 73 76 82 84 79 70 61 46 38 37 38 36 36 33 34 34 35 37 39 39 36
31 32 35 37 34 34 36 39 41 45 48 50 53 56 57 59 62 63 64 66 66 67 70 73 76 80 82 77 65 50 40 35 33 36 37 40 36 37 36 36 34 33 35 36 38
34 36 37 36 35 36 37 40 43 46 48 51 55 55 58 62 63 63 64 64 67 70 72 76 80 78 76 68 54 42 35 32 34 34 35 39 38 38 40 39 39 35 32 32 33
34 37 37 37 38 38 39 42 46 47 50 52 54 56 58 62 63 62 64 66 69 72 75 80 80 75 67 56 45 33 31 32 34 37 36 38 39 38 40 39 40 41 38 36 34
36 37 34 36 37 39 43 46 46 48 50 54 54 57 61 62 61 63 66 68 70 74 79 82 80 70 59 46 37 31 31 33 36 37 38 36 36 36 36 36 37 39 40 40 36
36 34 37 39 42 46 46 46 47 49 52 52 54 58 60 60 62 65 67 69 73 77 80 78 72 59 47 39 35 32 32 34 35 36 35 36 37 37 37 37 38 38 35 34 34
36 35 38 41 42 42 43 47 49 52 53 55 56 56 58 61 63 66 68 72 75 79 79 72 59 51 37 36 34 31 32 33 34 32 32 34 34 35 36 36 37 36 34 32 31
33 34 38 40 39 41 44 47 50 52 55 56 56 57 60 62 65 68 70 75 77 75 72 62 52 43 34 33 31 30 31 33 31 32 34 33 34 34 32 33 36 32 28 26 26
Wind_Direction
313 315 318 315 314 315 315 311 311 313 312 311 315 323 322 319 316 310 303 297 294 297 301 302 301 297 294 292 292 292 293 285 276 271 270 270 270 270 269 267 263 260 260 259 256
302 302 304 307 313 312 310 310 311 313 314 317 323 323 322 320 317 308 301 299 294 293 299 301 302 303 301 298 297 294 292 288 287 283 276 271 269 268 268 266 264 262 257 255 255
297 298 302 308 315 314 320 326 325 321 316 313 313 315 316 319 320 313 305 300 298 294 297 296 304 306 303 302 300 297 291 288 287 288 286 279 273 271 268 264 266 264 263 263 259
300 297 302 312 314 314 315 320 320 314 308 305 303 305 305 310 312 314 311 305 305 302 305 304 307 304 301 298 295 294 290 288 283 282 285 286 284 274 275 274 267 265 263 261 261
290 295 302 306 309 309 310 312 314 311 305 305 304 304 304 302 302 308 308 301 301 306 302 303 304 304 300 298 297 296 292 290 288 286 285 281 277 275 274 272 269 266 263 261 260
283 285 291 298 303 301 304 307 310 313 315 313 311 310 308 311 311 312 310 308 309 306 303 303 303 301 299 298 297 294 291 287 287 286 284 282 280 278 275 272 270 268 266 263 260
302 298 296 299 302 307 310 313 313 320 325 324 321 321 323 319 323 326 323 317 309 308 307 303 301 302 302 299 298 296 294 292 289 288 286 284 282 279 277 275 272 269 268 266 264
313 307 305 304 306 310 311 315 319 324 329 330 329 328 327 324 320 322 318 311 306 304 305 304 303 302 301 299 298 296 294 293 292 290 288 286 285 282 280 278 275 273 270 268 266
326 318 313 310 310 311 313 316 320 322 326 333 331 325 324 328 325 320 315 308 305 304 305 304 303 301 301 300 297 295 293 292 290 289 288 287 286 285 285 283 281 278 275 272 269
331 329 326 322 320 319 317 320 322 322 325 325 326 325 320 318 317 313 310 307 306 305 305 305 304 303 303 301 300 298 298 295 292 290 287 285 283 282 281 279 277 276 275 274 271
332 329 327 325 324 322 319 318 319 322 321 324 323 322 316 315 314 314 312 311 311 309 306 304 304 305 305 304 301 299 297 294 292 291 288 286 284 282 281 279 278 277 275 272 270
329 328 327 324 323 320 319 318 318 322 323 322 319 318 315 315 317 317 316 314 311 309 308 307 306 309 309 307 304 301 299 298 297 295 293 290 287 285 284 283 281 278 276 274 272
322 323 322 323 321 318 317 317 316 319 322 324 322 321 321 321 320 318 316 313 311 309 309 310 312 311 309 308 306 305 303 301 299 297 296 294 292 290 288 286 284 282 279 275 269
323 325 324 323 326 323 317 318 317 319 318 321 323 322 324 324 323 321 320 317 317 317 318 317 316 314 313 311 310 308 305 304 302 301 298 296 294 292 291 289 287 286 284 280 278
321 326 327 325 331 332 327 323 321 320 320 323 323 324 326 322 322 322 321 321 321 321 321 319 316 314 313 312 311 310 309 307 305 303 301 299 296 295 293 292 289 287 283 280 277
318 322 322 322 327 327 326 327 323 322 321 323 325 325 324 323 322 322 322 322 321 321 319 317 316 316 316 315 313 312 312 310 307 304 301 301 300 300 301 299 297 294 289 285 283
319 321 321 323 323 324 323 322 322 324 324 326 325 325 325 323 324 325 325 324 323 321 319 319 318 318 317 317 316 315 312 309 306 307 308 308 306 307 307 305 302 296 292 290 287
317 319 323 324 324 329 329 326 325 324 324 324 326 326 325 326 324 326 324 323 322 320 318 319 321 319 319 318 317 314 311 309 308 308 312 312 311 312 310 309 302 297 292 286 286
317 322 325 325 324 324 325 326 327 325 325 326 326 325 325 326 326 327 324 323 322 320 320 321 322 322 320 319 317 315 312 312 309 310 314 316 317 314 309 305 301 295 288 285 287
318 321 325 327 329 328 329 327 325 327 326 325 323 323 326 327 328 328 325 323 322 321 321 323 323 323 321 317 316 314 314 313 315 315 315 317 317 315 313 310 302 294 288 285 284
316 320 325 327 327 327 327 327 326 324 325 325 324 326 328 328 328 325 325 323 322 323 324 325 324 322 319 319 317 317 311 310 312 315 314 318 320 312 310 309 309 307 301 291 282
315 319 320 323 323 326 326 325 324 324 324 325 325 327 328 327 326 325 324 324 323 324 326 325 323 322 320 319 317 313 310 310 312 313 316 315 318 311 309 307 307 306 307 309 311
315 319 321 320 320 320 321 323 322 322 324 325 326 326 327 326 324 325 324 324 325 325 326 325 324 322 319 317 318 315 309 310 313 314 318 313 314 311 308 307 302 302 303 307 307
311 313 314 316 316 318 319 318 319 321 324 326 327 328 327 326 324 325 325 326 326 326 326 324 324 322 319 320 318 313 309 312 314 316 315 312 311 307 308 306 303 299 300 302 301
310 311 313 314 316 317 318 316 319 322 324 327 327 327 327 325 325 325 326 326 327 326 326 325 324 321 319 320 318 316 313 314 314 316 313 312 316 317 316 314 311 310 309 304 300
307 308 313 315 320 319 317 318 321 325 325 325 325 327 328 326 326 326 327 328 326 327 325 325 323 320 321 318 316 314 312 314 317 318 317 316 318 316 316 316 312 311 310 308 303
305 307 314 316 320 318 317 317 322 324 324 325 325 326 327 328 327 328 329 327 326 327 326 324 322 322 323 317 315 316 317 321 323 323 319 321 321 323 321 317 312 314 313 308 302